Time,TemperatureF,DewpointF,PressureIn,WindDirection,WindDirectionDegrees,WindSpeedMPH,WindSpeedGustMPH,Humidity,HourlyPrecipIn,Conditions,Clouds,dailyrainin,SoftwareType,DateUTC
2013-01-09 00:00:00,76.3,74.1,30.04,SE,135,4.0,11.0,93,0.00,,,0.00,meteohub,2013-01-09 05:00:00,
2013-01-09 00:01:00,76.3,74.1,30.04,ESE,113,4.0,11.0,93,0.00,,,0.00,meteohub,2013-01-09 05:01:00,
2013-01-09 00:03:00,76.5,74.3,30.04,East,90,4.0,11.0,93,0.00,,,0.00,meteohub,2013-01-09 05:03:00,
2013-01-09 00:05:00,76.3,74.1,30.05,East,90,4.0,11.0,93,0.00,,,0.00,meteohub,2013-01-09 05:05:00,
2013-01-09 00:10:00,76.3,74.1,30.05,East,90,4.0,7.0,93,0.00,,,0.00,meteohub,2013-01-09 05:10:00,
2013-01-09 00:16:00,76.3,74.1,30.05,East,90,4.0,7.0,93,0.00,,,0.00,meteohub,2013-01-09 05:16:00,
2013-01-09 00:21:00,76.1,74.3,30.05,East,90,5.0,6.0,94,0.00,,,0.00,meteohub,2013-01-09 05:21:00,
2013-01-09 00:26:00,75.9,74.1,30.04,East,90,2.0,5.0,94,0.00,,,0.00,meteohub,2013-01-09 05:26:00,
2013-01-09 00:31:00,75.9,74.1,30.04,SE,135,3.0,5.0,94,0.00,,,0.00,meteohub,2013-01-09 05:31:00,
2013-01-09 00:36:00,75.9,74.3,30.04,East,90,2.0,5.0,95,0.00,,,0.00,meteohub,2013-01-09 05:36:00,
2013-01-09 00:41:00,75.7,74.1,30.04,East,90,3.0,4.0,95,0.00,,,0.00,meteohub,2013-01-09 05:41:00,
2013-01-09 00:46:00,75.6,73.9,30.04,East,90,2.0,4.0,95,0.00,,,0.00,meteohub,2013-01-09 05:46:00,
2013-01-09 00:51:00,75.6,74.3,30.05,East,90,2.0,3.0,96,0.00,,,0.00,meteohub,2013-01-09 05:51:00,
2013-01-09 00:57:00,75.4,74.1,30.04,East,90,1.0,3.0,96,0.00,,,0.00,meteohub,2013-01-09 05:57:00,
2013-01-09 01:02:00,75.4,74.1,30.04,East,90,2.0,3.0,96,0.00,,,0.00,meteohub,2013-01-09 06:02:00,
2013-01-09 01:07:00,75.2,73.9,30.05,East,90,2.0,2.0,96,0.00,,,0.00,meteohub,2013-01-09 06:07:00,
2013-01-09 01:12:00,75.2,74.3,30.05,East,90,2.0,2.0,97,0.00,,,0.00,meteohub,2013-01-09 06:12:00,
2013-01-09 01:17:00,75.2,74.3,30.05,East,90,4.0,4.0,97,0.00,,,0.00,meteohub,2013-01-09 06:17:00,
2013-01-09 01:22:00,75.4,74.5,30.05,East,90,4.0,4.0,97,0.00,,,0.00,meteohub,2013-01-09 06:22:00,
2013-01-09 01:27:00,75.7,74.1,30.05,East,90,9.0,9.0,95,0.00,,,0.00,meteohub,2013-01-09 06:27:00,
2013-01-09 01:32:00,76.1,73.6,30.05,East,90,13.0,13.0,92,0.00,,,0.00,meteohub,2013-01-09 06:32:00,
2013-01-09 01:37:00,76.6,73.4,30.05,East,90,11.0,13.0,90,0.00,,,0.00,meteohub,2013-01-09 06:37:00,
2013-01-09 01:42:00,76.6,73.2,30.05,East,90,10.0,13.0,89,0.00,,,0.00,meteohub,2013-01-09 06:42:00,
2013-01-09 01:47:00,76.8,73.6,30.05,East,90,6.0,14.0,90,0.00,,,0.00,meteohub,2013-01-09 06:47:00,
2013-01-09 01:52:00,77.0,73.8,30.05,East,90,10.0,14.0,90,0.00,,,0.00,meteohub,2013-01-09 06:52:00,
2013-01-09 01:57:00,76.8,73.9,30.06,NE,45,15.0,15.0,91,0.00,,,0.00,meteohub,2013-01-09 06:57:00,
2013-01-09 02:02:00,77.0,74.1,30.06,SE,135,11.0,15.0,91,0.00,,,0.00,meteohub,2013-01-09 07:02:00,
2013-01-09 02:07:00,77.0,73.8,30.06,East,90,12.0,15.0,90,0.00,,,0.00,meteohub,2013-01-09 07:07:00,
2013-01-09 02:12:00,76.8,73.9,30.06,East,90,9.0,15.0,91,0.00,,,0.00,meteohub,2013-01-09 07:12:00,
2013-01-09 02:17:00,76.8,73.9,30.06,NE,45,8.0,13.0,91,0.00,,,0.00,meteohub,2013-01-09 07:17:00,
2013-01-09 02:22:00,76.8,73.9,30.06,East,90,5.0,13.0,91,0.00,,,0.00,meteohub,2013-01-09 07:22:00,
2013-01-09 02:27:00,76.6,73.8,30.06,ESE,113,8.0,13.0,91,0.00,,,0.00,meteohub,2013-01-09 07:27:00,
2013-01-09 02:32:00,76.6,74.1,30.06,South,180,12.0,12.0,92,0.00,,,0.00,meteohub,2013-01-09 07:32:00,
2013-01-09 02:37:00,76.6,73.8,30.06,East,90,11.0,12.0,91,0.00,,,0.00,meteohub,2013-01-09 07:37:00,
2013-01-09 02:42:00,76.6,73.8,30.06,East,90,6.0,12.0,91,0.00,,,0.00,meteohub,2013-01-09 07:42:00,
2013-01-09 02:47:00,76.5,73.6,30.06,East,90,12.0,12.0,91,0.00,,,0.00,meteohub,2013-01-09 07:47:00,
2013-01-09 02:52:00,76.5,73.6,30.06,ESE,113,8.0,12.0,91,0.00,,,0.00,meteohub,2013-01-09 07:52:00,
2013-01-09 02:57:00,76.5,73.6,30.06,East,90,10.0,12.0,91,0.00,,,0.00,meteohub,2013-01-09 07:57:00,
2013-01-09 03:02:00,76.5,73.6,30.06,East,90,6.0,12.0,91,0.00,,,0.00,meteohub,2013-01-09 08:02:00,
2013-01-09 03:07:00,76.5,73.6,30.06,East,90,7.0,11.0,91,0.00,,,0.00,meteohub,2013-01-09 08:07:00,
2013-01-09 03:12:00,76.6,73.8,30.06,East,90,8.0,11.0,91,0.00,,,0.00,meteohub,2013-01-09 08:12:00,
2013-01-09 03:17:00,76.6,73.8,30.06,SE,135,11.0,15.0,91,0.00,,,0.00,meteohub,2013-01-09 08:17:00,
2013-01-09 03:22:00,76.6,73.8,30.06,East,90,6.0,15.0,91,0.00,,,0.00,meteohub,2013-01-09 08:22:00,
2013-01-09 03:27:00,76.6,73.4,30.06,East,90,10.0,15.0,90,0.00,,,0.00,meteohub,2013-01-09 08:27:00,
2013-01-09 03:32:00,76.5,73.2,30.06,East,90,5.0,13.0,90,0.00,,,0.00,meteohub,2013-01-09 08:32:00,
2013-01-09 03:37:00,76.5,73.6,30.06,ESE,113,9.0,11.0,91,0.00,,,0.00,meteohub,2013-01-09 08:37:00,
2013-01-09 03:42:00,76.3,73.4,30.06,East,90,7.0,10.0,91,0.00,,,0.00,meteohub,2013-01-09 08:42:00,
2013-01-09 03:47:00,76.3,73.4,30.06,SE,135,6.0,9.0,91,0.00,,,0.00,meteohub,2013-01-09 08:47:00,
2013-01-09 03:52:00,76.1,73.2,30.06,East,90,8.0,9.0,91,0.00,,,0.00,meteohub,2013-01-09 08:52:00,
2013-01-09 03:57:00,76.1,73.2,30.06,East,90,12.0,12.0,91,0.00,,,0.00,meteohub,2013-01-09 08:57:00,
2013-01-09 04:02:00,76.1,73.2,30.06,East,90,6.0,12.0,91,0.00,,,0.00,meteohub,2013-01-09 09:02:00,
2013-01-09 04:07:00,75.9,73.0,30.06,East,90,6.0,12.0,91,0.00,,,0.00,meteohub,2013-01-09 09:07:00,
2013-01-09 04:12:00,75.7,73.2,30.06,East,90,8.0,12.0,92,0.00,,,0.00,meteohub,2013-01-09 09:12:00,
2013-01-09 04:17:00,75.7,73.2,30.06,SE,135,7.0,10.0,92,0.00,,,0.00,meteohub,2013-01-09 09:17:00,
2013-01-09 04:22:00,75.7,73.2,30.06,East,90,4.0,10.0,92,0.00,,,0.00,meteohub,2013-01-09 09:22:00,
2013-01-09 04:27:00,75.6,73.0,30.07,East,90,9.0,9.0,92,0.00,,,0.00,meteohub,2013-01-09 09:27:00,
2013-01-09 04:32:00,75.7,73.2,30.07,East,90,8.0,9.0,92,0.00,,,0.00,meteohub,2013-01-09 09:32:00,
2013-01-09 04:37:00,75.6,73.0,30.07,NE,45,11.0,11.0,92,0.00,,,0.00,meteohub,2013-01-09 09:37:00,
2013-01-09 04:42:00,75.6,73.0,30.07,East,90,4.0,11.0,92,0.00,,,0.00,meteohub,2013-01-09 09:42:00,
2013-01-09 04:47:00,75.7,73.2,30.07,SE,135,8.0,11.0,92,0.00,,,0.00,meteohub,2013-01-09 09:47:00,
2013-01-09 04:52:00,75.9,73.0,30.07,East,90,10.0,11.0,91,0.00,,,0.00,meteohub,2013-01-09 09:52:00,
2013-01-09 04:57:00,75.9,73.0,30.07,East,90,12.0,12.0,91,0.00,,,0.00,meteohub,2013-01-09 09:57:00,
2013-01-09 05:02:00,75.9,73.0,30.08,East,90,8.0,12.0,91,0.00,,,0.00,meteohub,2013-01-09 10:02:00,
2013-01-09 05:07:00,75.7,72.9,30.08,East,90,8.0,12.0,91,0.00,,,0.00,meteohub,2013-01-09 10:07:00,
2013-01-09 05:12:00,75.6,72.7,30.08,South,180,8.0,12.0,91,0.00,,,0.00,meteohub,2013-01-09 10:12:00,
2013-01-09 05:17:00,75.6,72.7,30.08,East,90,8.0,9.0,91,0.00,,,0.00,meteohub,2013-01-09 10:17:00,
2013-01-09 05:22:00,75.6,72.7,30.08,East,90,8.0,9.0,91,0.00,,,0.00,meteohub,2013-01-09 10:22:00,
2013-01-09 05:28:00,75.6,72.7,30.08,East,90,6.0,9.0,91,0.00,,,0.00,meteohub,2013-01-09 10:28:00,
2013-01-09 05:33:00,75.4,72.5,30.08,East,90,6.0,11.0,91,0.00,,,0.00,meteohub,2013-01-09 10:33:00,
2013-01-09 05:38:00,75.6,72.7,30.08,East,90,7.0,11.0,91,0.00,,,0.00,meteohub,2013-01-09 10:38:00,
2013-01-09 05:43:00,75.6,72.7,30.08,ESE,113,8.0,11.0,91,0.00,,,0.00,meteohub,2013-01-09 10:43:00,
2013-01-09 05:48:00,75.4,72.5,30.08,East,90,5.0,11.0,91,0.00,,,0.00,meteohub,2013-01-09 10:48:00,
2013-01-09 05:53:00,75.4,72.5,30.07,SE,135,8.0,11.0,91,0.00,,,0.00,meteohub,2013-01-09 10:53:00,
2013-01-09 05:58:00,75.4,72.5,30.08,East,90,8.0,11.0,91,0.00,,,0.00,meteohub,2013-01-09 10:58:00,
2013-01-09 06:03:00,75.4,72.5,30.08,East,90,8.0,9.0,91,0.00,,,0.00,meteohub,2013-01-09 11:03:00,
2013-01-09 06:08:00,75.4,72.5,30.08,East,90,8.0,11.0,91,0.00,,,0.00,meteohub,2013-01-09 11:08:00,
2013-01-09 06:14:00,75.4,72.5,30.08,East,90,8.0,11.0,91,0.00,,,0.00,meteohub,2013-01-09 11:14:00,
2013-01-09 06:19:00,75.4,72.5,30.08,East,90,10.0,11.0,91,0.00,,,0.00,meteohub,2013-01-09 11:19:00,
2013-01-09 06:24:00,75.4,72.3,30.09,SE,135,7.0,11.0,90,0.00,,,0.00,meteohub,2013-01-09 11:24:00,
2013-01-09 06:29:00,75.6,72.5,30.09,East,90,6.0,11.0,90,0.00,,,0.00,meteohub,2013-01-09 11:29:00,
2013-01-09 06:34:00,75.6,72.5,30.09,East,90,11.0,11.0,90,0.00,,,0.00,meteohub,2013-01-09 11:34:00,
2013-01-09 06:39:00,75.6,72.5,30.09,East,90,6.0,11.0,90,0.00,,,0.00,meteohub,2013-01-09 11:39:00,
2013-01-09 06:44:00,75.6,72.5,30.09,East,90,5.0,11.0,90,0.00,,,0.00,meteohub,2013-01-09 11:44:00,
2013-01-09 06:49:00,75.6,72.5,30.09,SE,135,7.0,11.0,90,0.00,,,0.00,meteohub,2013-01-09 11:49:00,
2013-01-09 06:54:00,75.6,72.5,30.09,East,90,7.0,11.0,90,0.00,,,0.00,meteohub,2013-01-09 11:54:00,
2013-01-09 07:00:00,75.6,72.5,30.09,East,90,6.0,9.0,90,0.00,,,0.00,meteohub,2013-01-09 12:00:00,
2013-01-09 07:05:00,75.6,72.5,30.09,East,90,8.0,9.0,90,0.00,,,0.00,meteohub,2013-01-09 12:05:00,
2013-01-09 07:10:00,75.6,72.5,30.10,SE,135,8.0,9.0,90,0.00,,,0.00,meteohub,2013-01-09 12:10:00,
2013-01-09 07:15:00,75.6,72.5,30.10,East,90,6.0,9.0,90,0.00,,,0.00,meteohub,2013-01-09 12:15:00,
2013-01-09 07:20:00,75.6,72.5,30.10,East,90,5.0,9.0,90,0.00,,,0.00,meteohub,2013-01-09 12:20:00,
2013-01-09 07:25:00,75.7,72.7,30.10,East,90,7.0,9.0,90,0.00,,,0.00,meteohub,2013-01-09 12:25:00,
2013-01-09 07:30:00,75.7,72.7,30.10,East,90,9.0,9.0,90,0.00,,,0.00,meteohub,2013-01-09 12:30:00,
2013-01-09 07:35:00,75.7,72.7,30.11,East,90,8.0,9.0,90,0.00,,,0.00,meteohub,2013-01-09 12:35:00,
2013-01-09 07:40:00,75.9,72.5,30.11,SE,135,10.0,12.0,89,0.00,,,0.00,meteohub,2013-01-09 12:40:00,
2013-01-09 07:46:00,76.3,72.1,30.11,East,90,12.0,12.0,87,0.00,,,0.00,meteohub,2013-01-09 12:46:00,
2013-01-09 07:51:00,76.5,72.3,30.11,East,90,8.0,12.0,87,0.00,,,0.00,meteohub,2013-01-09 12:51:00,
2013-01-09 07:56:00,76.5,72.7,30.12,East,90,5.0,12.0,88,0.00,,,0.00,meteohub,2013-01-09 12:56:00,
2013-01-09 08:01:00,76.3,72.9,30.12,ENE,68,10.0,12.0,89,0.00,,,0.00,meteohub,2013-01-09 13:01:00,
2013-01-09 08:06:00,76.3,72.9,30.12,East,90,11.0,11.0,89,0.00,,,0.00,meteohub,2013-01-09 13:06:00,
2013-01-09 08:11:00,76.3,72.9,30.13,NE,45,7.0,11.0,89,0.00,,,0.00,meteohub,2013-01-09 13:11:00,
2013-01-09 08:16:00,76.5,73.0,30.12,East,90,6.0,11.0,89,0.00,,,0.00,meteohub,2013-01-09 13:16:00,
2013-01-09 08:21:00,76.8,73.0,30.13,East,90,11.0,11.0,88,0.00,,,0.00,meteohub,2013-01-09 13:21:00,
2013-01-09 08:27:00,77.0,73.2,30.13,NE,45,8.0,11.0,88,0.00,,,0.00,meteohub,2013-01-09 13:27:00,
2013-01-09 08:32:00,77.9,73.8,30.13,SE,135,10.0,11.0,87,0.00,,,0.00,meteohub,2013-01-09 13:32:00,
2013-01-09 08:37:00,77.9,73.8,30.13,East,90,11.0,11.0,87,0.00,,,0.00,meteohub,2013-01-09 13:37:00,
2013-01-09 08:42:00,77.9,73.8,30.13,East,90,13.0,15.0,87,0.00,,,0.00,meteohub,2013-01-09 13:42:00,
2013-01-09 08:47:00,78.4,73.6,30.14,East,90,11.0,15.0,85,0.00,,,0.00,meteohub,2013-01-09 13:47:00,
2013-01-09 08:52:00,78.6,73.8,30.14,East,90,11.0,15.0,85,0.00,,,0.00,meteohub,2013-01-09 13:52:00,
2013-01-09 08:57:00,78.6,73.8,30.14,East,90,11.0,14.0,85,0.00,,,0.00,meteohub,2013-01-09 13:57:00,
2013-01-09 09:02:00,78.6,73.8,30.14,SE,135,11.0,14.0,85,0.00,,,0.00,meteohub,2013-01-09 14:02:00,
2013-01-09 09:07:00,78.6,73.8,30.14,East,90,10.0,15.0,85,0.00,,,0.00,meteohub,2013-01-09 14:07:00,
2013-01-09 09:12:00,78.6,73.8,30.15,ESE,113,14.0,16.0,85,0.00,,,0.00,meteohub,2013-01-09 14:12:00,
2013-01-09 09:17:00,78.8,73.6,30.15,NE,45,11.0,16.0,84,0.00,,,0.00,meteohub,2013-01-09 14:17:00,
2013-01-09 09:22:00,79.0,73.8,30.15,SE,135,10.0,17.0,84,0.00,,,0.00,meteohub,2013-01-09 14:22:00,
2013-01-09 09:27:00,79.5,73.9,30.15,East,90,11.0,17.0,83,0.00,,,0.00,meteohub,2013-01-09 14:27:00,
2013-01-09 09:32:00,79.7,73.8,30.15,East,90,8.0,17.0,82,0.00,,,0.00,meteohub,2013-01-09 14:32:00,
2013-01-09 09:37:00,79.7,73.8,30.15,East,90,11.0,17.0,82,0.00,,,0.00,meteohub,2013-01-09 14:37:00,
2013-01-09 09:43:00,79.7,73.8,30.15,East,90,13.0,17.0,82,0.00,,,0.00,meteohub,2013-01-09 14:43:00,
2013-01-09 09:48:00,79.9,73.6,30.16,East,90,15.0,16.0,81,0.00,,,0.00,meteohub,2013-01-09 14:48:00,
2013-01-09 09:53:00,80.2,73.9,30.15,ESE,113,11.0,16.0,81,0.00,,,0.00,meteohub,2013-01-09 14:53:00,
2013-01-09 09:58:00,80.8,73.6,30.16,East,90,9.0,16.0,79,0.00,,,0.00,meteohub,2013-01-09 14:58:00,
2013-01-09 10:03:00,81.0,73.8,30.16,East,90,13.0,16.0,79,0.00,,,0.00,meteohub,2013-01-09 15:03:00,
2013-01-09 10:08:00,80.1,73.8,30.15,SE,135,12.0,19.0,81,0.00,,,0.00,meteohub,2013-01-09 15:08:00,
2013-01-09 10:13:00,80.2,73.9,30.15,ESE,113,11.0,19.0,81,0.00,,,0.00,meteohub,2013-01-09 15:13:00,
2013-01-09 10:18:00,80.2,73.6,30.15,SE,135,15.0,19.0,80,0.00,,,0.00,meteohub,2013-01-09 15:18:00,
2013-01-09 10:24:00,79.9,73.6,30.15,East,90,15.0,18.0,81,0.00,,,0.00,meteohub,2013-01-09 15:24:00,
2013-01-09 10:29:00,79.7,73.8,30.15,East,90,11.0,21.0,82,0.00,,,0.00,meteohub,2013-01-09 15:29:00,
2013-01-09 10:34:00,79.5,73.2,30.14,East,90,20.0,21.0,81,0.00,,,0.00,meteohub,2013-01-09 15:34:00,
2013-01-09 10:39:00,79.7,73.4,30.14,SE,135,16.0,21.0,81,0.00,,,0.00,meteohub,2013-01-09 15:39:00,
2013-01-09 10:44:00,80.1,73.8,30.14,East,90,17.0,21.0,81,0.00,,,0.00,meteohub,2013-01-09 15:44:00,
2013-01-09 10:49:00,79.7,73.8,30.15,East,90,12.0,21.0,82,0.00,,,0.00,meteohub,2013-01-09 15:49:00,
2013-01-09 10:54:00,79.7,73.8,30.14,East,90,11.0,17.0,82,0.00,,,0.00,meteohub,2013-01-09 15:54:00,
2013-01-09 10:59:00,80.1,73.4,30.14,East,90,15.0,17.0,80,0.00,,,0.00,meteohub,2013-01-09 15:59:00,
2013-01-09 11:05:00,80.6,73.9,30.14,East,90,11.0,17.0,80,0.00,,,0.00,meteohub,2013-01-09 16:05:00,
2013-01-09 11:10:00,80.2,73.0,30.13,East,90,15.0,16.0,79,0.00,,,0.00,meteohub,2013-01-09 16:10:00,
2013-01-09 11:15:00,80.6,73.9,30.13,East,90,15.0,17.0,80,0.00,,,0.00,meteohub,2013-01-09 16:15:00,
2013-01-09 11:20:00,80.6,73.9,30.13,SE,135,10.0,15.0,80,0.00,,,0.00,meteohub,2013-01-09 16:20:00,
2013-01-09 11:25:00,80.8,73.6,30.13,East,90,13.0,17.0,79,0.00,,,0.00,meteohub,2013-01-09 16:25:00,
2013-01-09 11:30:00,80.6,73.9,30.12,East,90,9.0,17.0,80,0.00,,,0.00,meteohub,2013-01-09 16:30:00,
2013-01-09 11:35:00,79.9,73.9,30.12,SE,135,12.0,17.0,82,0.00,,,0.00,meteohub,2013-01-09 16:35:00,
2013-01-09 11:40:00,80.2,73.9,30.13,East,90,10.0,17.0,81,0.00,,,0.00,meteohub,2013-01-09 16:40:00,
2013-01-09 11:46:00,80.2,73.9,30.12,SE,135,17.0,17.0,81,0.00,,,0.00,meteohub,2013-01-09 16:46:00,
2013-01-09 11:51:00,80.1,73.8,30.12,East,90,14.0,19.0,81,0.00,,,0.00,meteohub,2013-01-09 16:51:00,
2013-01-09 11:56:00,80.4,74.1,30.12,East,90,13.0,20.0,81,0.00,,,0.00,meteohub,2013-01-09 16:56:00,
2013-01-09 12:01:00,80.4,73.8,30.12,SE,135,15.0,20.0,80,0.00,,,0.00,meteohub,2013-01-09 17:01:00,
2013-01-09 12:06:00,80.4,73.8,30.12,East,90,11.0,20.0,80,0.00,,,0.00,meteohub,2013-01-09 17:06:00,
2013-01-09 12:11:00,80.6,73.9,30.12,NE,45,15.0,17.0,80,0.00,,,0.00,meteohub,2013-01-09 17:11:00,
2013-01-09 12:16:00,79.9,73.2,30.12,North,0,15.0,17.0,80,0.00,,,0.00,meteohub,2013-01-09 17:16:00,
2013-01-09 12:21:00,79.7,73.8,30.12,East,90,17.0,18.0,82,0.00,,,0.00,meteohub,2013-01-09 17:21:00,
2013-01-09 12:26:00,80.1,73.8,30.11,East,90,15.0,18.0,81,0.00,,,0.00,meteohub,2013-01-09 17:26:00,
2013-01-09 12:31:00,80.1,73.4,30.11,East,90,15.0,18.0,80,0.00,,,0.00,meteohub,2013-01-09 17:31:00,
2013-01-09 12:37:00,79.5,73.2,30.10,East,90,22.0,22.0,81,0.00,,,0.00,meteohub,2013-01-09 17:37:00,
2013-01-09 12:42:00,79.9,73.2,30.10,East,90,18.0,22.0,80,0.00,,,0.00,meteohub,2013-01-09 17:42:00,
2013-01-09 12:47:00,80.2,73.6,30.10,East,90,11.0,22.0,80,0.00,,,0.00,meteohub,2013-01-09 17:47:00,
2013-01-09 12:52:00,80.6,73.9,30.10,SE,135,15.0,22.0,80,0.00,,,0.00,meteohub,2013-01-09 17:52:00,
2013-01-09 12:57:00,81.5,74.3,30.10,East,90,15.0,18.0,79,0.00,,,0.00,meteohub,2013-01-09 17:57:00,
2013-01-09 13:02:00,81.0,73.8,30.09,East,90,15.0,18.0,79,0.00,,,0.00,meteohub,2013-01-09 18:02:00,
2013-01-09 13:07:00,80.6,73.9,30.10,East,90,11.0,17.0,80,0.00,,,0.00,meteohub,2013-01-09 18:07:00,
2013-01-09 13:12:00,80.2,73.6,30.09,SE,135,14.0,17.0,80,0.00,,,0.00,meteohub,2013-01-09 18:12:00,
2013-01-09 13:17:00,80.4,74.1,30.10,East,90,9.0,20.0,81,0.00,,,0.00,meteohub,2013-01-09 18:17:00,
2013-01-09 13:22:00,80.1,73.8,30.10,North,0,11.0,20.0,81,0.00,,,0.00,meteohub,2013-01-09 18:22:00,
2013-01-09 13:27:00,79.9,73.6,30.09,East,90,16.0,19.0,81,0.00,,,0.00,meteohub,2013-01-09 18:27:00,
2013-01-09 13:32:00,79.7,73.4,30.09,SE,135,14.0,19.0,81,0.00,,,0.00,meteohub,2013-01-09 18:32:00,
2013-01-09 13:37:00,79.5,73.9,30.09,NE,45,11.0,19.0,83,0.00,,,0.00,meteohub,2013-01-09 18:37:00,
2013-01-09 13:41:00,79.3,73.8,30.09,East,90,12.0,19.0,83,0.00,,,0.00,meteohub,2013-01-09 18:41:00,
2013-01-09 13:42:00,79.3,73.4,30.09,East,90,15.0,19.0,82,0.00,,,0.00,meteohub,2013-01-09 18:42:00,
2013-01-09 13:43:00,79.3,73.8,30.09,East,90,18.0,19.0,83,0.00,,,0.00,meteohub,2013-01-09 18:43:00,
2013-01-09 13:44:00,79.2,73.6,30.09,ESE,113,15.0,19.0,83,0.00,,,0.00,meteohub,2013-01-09 18:44:00,
2013-01-09 13:45:00,79.2,73.6,30.09,East,90,15.0,19.0,83,0.00,,,0.00,meteohub,2013-01-09 18:45:00,
2013-01-09 13:48:00,79.7,74.1,30.09,ENE,68,11.0,18.0,83,0.00,,,0.00,meteohub,2013-01-09 18:48:00,
2013-01-09 13:49:00,79.7,74.1,30.09,East,90,11.0,18.0,83,0.00,,,0.00,meteohub,2013-01-09 18:49:00,
2013-01-09 13:50:00,79.7,73.8,30.09,East,90,15.0,18.0,82,0.00,,,0.00,meteohub,2013-01-09 18:50:00,
2013-01-09 13:52:00,79.5,73.9,30.09,East,90,15.0,18.0,83,0.00,,,0.00,meteohub,2013-01-09 18:52:00,
2013-01-09 13:57:00,79.3,73.8,30.09,East,90,13.0,18.0,83,0.00,,,0.00,meteohub,2013-01-09 18:57:00,
2013-01-09 14:03:00,79.2,73.2,30.09,East,90,16.0,16.0,82,0.00,,,0.00,meteohub,2013-01-09 19:03:00,
2013-01-09 14:08:00,79.5,73.6,30.08,East,90,14.0,16.0,82,0.00,,,0.00,meteohub,2013-01-09 19:08:00,
2013-01-09 14:13:00,79.5,73.6,30.09,NE,45,12.0,18.0,82,0.00,,,0.00,meteohub,2013-01-09 19:13:00,
2013-01-09 14:18:00,79.3,73.4,30.08,East,90,16.0,18.0,82,0.00,,,0.00,meteohub,2013-01-09 19:18:00,
2013-01-09 14:23:00,79.7,73.8,30.09,East,90,9.0,21.0,82,0.00,,,0.00,meteohub,2013-01-09 19:23:00,
2013-01-09 14:28:00,79.9,73.9,30.08,East,90,10.0,21.0,82,0.00,,,0.00,meteohub,2013-01-09 19:28:00,
2013-01-09 14:33:00,80.4,73.8,30.08,East,90,11.0,17.0,80,0.00,,,0.00,meteohub,2013-01-09 19:33:00,
2013-01-09 14:38:00,80.4,73.2,30.08,East,90,12.0,15.0,79,0.00,,,0.00,meteohub,2013-01-09 19:38:00,
2013-01-09 14:43:00,81.1,73.6,30.09,East,90,6.0,15.0,78,0.00,,,0.00,meteohub,2013-01-09 19:43:00,
2013-01-09 14:49:00,81.5,73.2,30.09,East,90,16.0,16.0,76,0.00,,,0.00,meteohub,2013-01-09 19:49:00,
2013-01-09 14:54:00,80.8,73.2,30.09,East,90,14.0,16.0,78,0.00,,,0.00,meteohub,2013-01-09 19:54:00,
2013-01-09 14:59:00,80.1,73.0,30.08,East,90,11.0,16.0,79,0.00,,,0.00,meteohub,2013-01-09 19:59:00,
2013-01-09 15:04:00,79.7,73.0,30.09,East,90,13.0,16.0,80,0.00,,,0.00,meteohub,2013-01-09 20:04:00,
2013-01-09 15:09:00,79.7,73.4,30.09,East,90,8.0,16.0,81,0.00,,,0.00,meteohub,2013-01-09 20:09:00,
2013-01-09 15:14:00,79.7,73.4,30.09,NE,45,7.0,16.0,81,0.00,,,0.00,meteohub,2013-01-09 20:14:00,
2013-01-09 15:20:00,79.7,73.4,30.09,East,90,9.0,15.0,81,0.00,,,0.00,meteohub,2013-01-09 20:20:00,
2013-01-09 15:25:00,79.5,73.2,30.09,East,90,13.0,13.0,81,0.00,,,0.00,meteohub,2013-01-09 20:25:00,
2013-01-09 15:30:00,79.2,72.9,30.09,East,90,12.0,12.0,81,0.00,,,0.00,meteohub,2013-01-09 20:30:00,
2013-01-09 15:35:00,79.5,73.2,30.09,East,90,9.0,15.0,81,0.00,,,0.00,meteohub,2013-01-09 20:35:00,
2013-01-09 15:40:00,79.5,73.2,30.09,East,90,7.0,15.0,81,0.00,,,0.00,meteohub,2013-01-09 20:40:00,
2013-01-09 15:45:00,79.9,73.6,30.08,East,90,10.0,14.0,81,0.00,,,0.00,meteohub,2013-01-09 20:45:00,
2013-01-09 15:50:00,80.1,73.4,30.09,ESE,113,9.0,14.0,80,0.00,,,0.00,meteohub,2013-01-09 20:50:00,
2013-01-09 15:56:00,79.7,73.4,30.09,NE,45,9.0,10.0,81,0.00,,,0.00,meteohub,2013-01-09 20:56:00,
2013-01-09 16:01:00,79.5,73.6,30.09,East,90,10.0,11.0,82,0.00,,,0.00,meteohub,2013-01-09 21:01:00,
2013-01-09 16:06:00,79.5,72.9,30.09,East,90,14.0,14.0,80,0.00,,,0.00,meteohub,2013-01-09 21:06:00,
2013-01-09 16:11:00,79.3,73.4,30.09,East,90,11.0,14.0,82,0.00,,,0.00,meteohub,2013-01-09 21:11:00,
2013-01-09 16:16:00,79.2,73.2,30.09,East,90,16.0,16.0,82,0.00,,,0.00,meteohub,2013-01-09 21:16:00,
2013-01-09 16:21:00,78.8,73.6,30.10,East,90,11.0,16.0,84,0.00,,,0.00,meteohub,2013-01-09 21:21:00,
2013-01-09 16:26:00,79.0,73.4,30.10,SE,135,11.0,16.0,83,0.00,,,0.00,meteohub,2013-01-09 21:26:00,
2013-01-09 16:32:00,78.8,73.2,30.09,SE,135,11.0,16.0,83,0.00,,,0.00,meteohub,2013-01-09 21:32:00,
2013-01-09 16:37:00,78.4,73.6,30.09,East,90,11.0,15.0,85,0.00,,,0.00,meteohub,2013-01-09 21:37:00,
2013-01-09 16:42:00,78.3,73.4,30.09,East,90,11.0,16.0,85,0.00,,,0.00,meteohub,2013-01-09 21:42:00,
2013-01-09 16:47:00,78.4,73.6,30.10,East,90,11.0,16.0,85,0.00,,,0.00,meteohub,2013-01-09 21:47:00,
2013-01-09 16:52:00,78.4,73.6,30.10,North,0,8.0,12.0,85,0.00,,,0.00,meteohub,2013-01-09 21:52:00,
2013-01-09 16:57:00,78.4,73.6,30.10,East,90,6.0,15.0,85,0.00,,,0.00,meteohub,2013-01-09 21:57:00,
2013-01-09 17:02:00,78.4,73.6,30.10,ENE,68,10.0,15.0,85,0.00,,,0.00,meteohub,2013-01-09 22:02:00,
2013-01-09 17:07:00,78.3,73.8,30.10,East,90,7.0,12.0,86,0.00,,,0.00,meteohub,2013-01-09 22:07:00,
2013-01-09 17:12:00,78.1,73.9,30.10,East,90,8.0,11.0,87,0.00,,,0.00,meteohub,2013-01-09 22:12:00,
2013-01-09 17:17:00,77.9,73.8,30.11,SE,135,11.0,14.0,87,0.00,,,0.00,meteohub,2013-01-09 22:17:00,
2013-01-09 17:22:00,77.7,73.9,30.12,East,90,7.0,14.0,88,0.00,,,0.00,meteohub,2013-01-09 22:22:00,
2013-01-09 17:27:00,77.5,73.4,30.12,East,90,10.0,13.0,87,0.00,,,0.00,meteohub,2013-01-09 22:27:00,
2013-01-09 17:32:00,77.5,73.8,30.12,East,90,11.0,14.0,88,0.00,,,0.00,meteohub,2013-01-09 22:32:00,
2013-01-09 17:37:00,77.5,73.8,30.12,East,90,9.0,14.0,88,0.00,,,0.00,meteohub,2013-01-09 22:37:00,
2013-01-09 17:42:00,77.5,73.8,30.12,East,90,11.0,14.0,88,0.00,,,0.00,meteohub,2013-01-09 22:42:00,
2013-01-09 17:47:00,77.4,73.9,30.12,East,90,6.0,11.0,89,0.00,,,0.00,meteohub,2013-01-09 22:47:00,
2013-01-09 17:52:00,77.4,73.6,30.12,SE,135,9.0,11.0,88,0.00,,,0.00,meteohub,2013-01-09 22:52:00,
2013-01-09 17:57:00,77.4,73.6,30.12,SE,135,11.0,13.0,88,0.00,,,0.00,meteohub,2013-01-09 22:57:00,
2013-01-09 18:02:00,77.2,73.8,30.12,NE,45,7.0,13.0,89,0.00,,,0.00,meteohub,2013-01-09 23:02:00,
2013-01-09 18:07:00,77.2,73.8,30.13,East,90,9.0,13.0,89,0.00,,,0.00,meteohub,2013-01-09 23:07:00,
2013-01-09 18:12:00,77.2,73.8,30.13,East,90,7.0,11.0,89,0.00,,,0.00,meteohub,2013-01-09 23:12:00,
2013-01-09 18:17:00,77.2,73.8,30.13,East,90,11.0,11.0,89,0.00,,,0.00,meteohub,2013-01-09 23:17:00,
2013-01-09 18:22:00,77.2,73.8,30.13,East,90,11.0,11.0,89,0.00,,,0.00,meteohub,2013-01-09 23:22:00,
2013-01-09 18:27:00,77.2,73.8,30.12,East,90,8.0,11.0,89,0.00,,,0.00,meteohub,2013-01-09 23:27:00,
2013-01-09 18:33:00,77.2,73.8,30.12,East,90,10.0,11.0,89,0.00,,,0.00,meteohub,2013-01-09 23:33:00,
2013-01-09 18:38:00,77.0,73.6,30.12,East,90,6.0,11.0,89,0.00,,,0.00,meteohub,2013-01-09 23:38:00,
2013-01-09 18:43:00,77.0,73.6,30.13,ESE,113,8.0,11.0,89,0.00,,,0.00,meteohub,2013-01-09 23:43:00,
2013-01-09 18:48:00,77.0,73.6,30.13,NE,45,6.0,14.0,89,0.00,,,0.00,meteohub,2013-01-09 23:48:00,
2013-01-09 18:53:00,77.0,73.8,30.13,East,90,12.0,14.0,90,0.00,,,0.00,meteohub,2013-01-09 23:53:00,
2013-01-09 18:58:00,77.0,73.6,30.13,East,90,10.0,14.0,89,0.00,,,0.00,meteohub,2013-01-09 23:58:00,
2013-01-09 19:03:00,77.0,73.6,30.13,NE,45,8.0,12.0,89,0.00,,,0.00,meteohub,2013-01-10 00:03:00,
2013-01-09 19:09:00,77.0,73.6,30.13,NE,45,11.0,14.0,89,0.00,,,0.00,meteohub,2013-01-10 00:09:00,
2013-01-09 19:14:00,77.0,73.6,30.13,ESE,113,8.0,14.0,89,0.00,,,0.00,meteohub,2013-01-10 00:14:00,
2013-01-09 19:19:00,77.0,73.6,30.13,East,90,13.0,13.0,89,0.00,,,0.00,meteohub,2013-01-10 00:19:00,
2013-01-09 19:24:00,77.0,73.6,30.13,East,90,8.0,11.0,89,0.00,,,0.00,meteohub,2013-01-10 00:24:00,
2013-01-09 19:29:00,77.0,73.6,30.14,East,90,8.0,13.0,89,0.00,,,0.00,meteohub,2013-01-10 00:29:00,
2013-01-09 19:34:00,77.0,73.6,30.13,East,90,7.0,13.0,89,0.00,,,0.00,meteohub,2013-01-10 00:34:00,
2013-01-09 19:39:00,76.8,73.4,30.14,East,90,8.0,12.0,89,0.00,,,0.00,meteohub,2013-01-10 00:39:00,
2013-01-09 19:44:00,76.8,73.4,30.14,East,90,8.0,11.0,89,0.00,,,0.00,meteohub,2013-01-10 00:44:00,
2013-01-09 19:49:00,76.8,73.4,30.14,NE,45,10.0,11.0,89,0.00,,,0.00,meteohub,2013-01-10 00:49:00,
2013-01-09 19:55:00,76.8,73.4,30.14,NE,45,10.0,11.0,89,0.00,,,0.00,meteohub,2013-01-10 00:55:00,
2013-01-09 20:00:00,76.8,73.0,30.14,East,90,11.0,11.0,88,0.00,,,0.00,meteohub,2013-01-10 01:00:00,
2013-01-09 20:05:00,76.8,73.0,30.14,East,90,10.0,15.0,88,0.00,,,0.00,meteohub,2013-01-10 01:05:00,
2013-01-09 20:10:00,76.8,73.4,30.15,East,90,6.0,15.0,89,0.00,,,0.00,meteohub,2013-01-10 01:10:00,
2013-01-09 20:15:00,76.8,73.4,30.15,East,90,12.0,12.0,89,0.00,,,0.00,meteohub,2013-01-10 01:15:00,
2013-01-09 20:20:00,76.8,73.0,30.14,East,90,11.0,12.0,88,0.00,,,0.00,meteohub,2013-01-10 01:20:00,
2013-01-09 20:25:00,76.8,73.0,30.14,East,90,10.0,13.0,88,0.00,,,0.00,meteohub,2013-01-10 01:25:00,
2013-01-09 20:31:00,76.8,73.0,30.14,East,90,10.0,14.0,88,0.00,,,0.00,meteohub,2013-01-10 01:31:00,
2013-01-09 20:36:00,76.8,73.0,30.14,East,90,8.0,14.0,88,0.00,,,0.00,meteohub,2013-01-10 01:36:00,
2013-01-09 20:41:00,76.8,73.0,30.14,East,90,8.0,14.0,88,0.00,,,0.00,meteohub,2013-01-10 01:41:00,
2013-01-09 20:46:00,76.6,72.9,30.14,East,90,7.0,13.0,88,0.00,,,0.00,meteohub,2013-01-10 01:46:00,
2013-01-09 20:51:00,76.8,73.4,30.15,East,90,7.0,12.0,89,0.00,,,0.00,meteohub,2013-01-10 01:51:00,
2013-01-09 20:56:00,76.8,73.0,30.15,East,90,10.0,12.0,88,0.00,,,0.00,meteohub,2013-01-10 01:56:00,
2013-01-09 21:02:00,76.6,73.2,30.15,East,90,9.0,12.0,89,0.00,,,0.00,meteohub,2013-01-10 02:02:00,
2013-01-09 21:07:00,76.5,73.0,30.15,South,180,8.0,11.0,89,0.00,,,0.00,meteohub,2013-01-10 02:07:00,
2013-01-09 21:12:00,76.6,72.9,30.14,East,90,8.0,11.0,88,0.00,,,0.00,meteohub,2013-01-10 02:12:00,
2013-01-09 21:17:00,76.6,72.9,30.15,SE,135,9.0,11.0,88,0.00,,,0.00,meteohub,2013-01-10 02:17:00,
2013-01-09 21:22:00,76.6,72.9,30.15,NE,45,8.0,11.0,88,0.00,,,0.00,meteohub,2013-01-10 02:22:00,
2013-01-09 21:27:00,76.5,72.7,30.16,East,90,8.0,11.0,88,0.00,,,0.00,meteohub,2013-01-10 02:27:00,
2013-01-09 21:32:00,76.6,72.9,30.16,NE,45,11.0,11.0,88,0.00,,,0.00,meteohub,2013-01-10 02:32:00,
2013-01-09 21:37:00,76.5,72.7,30.16,East,90,8.0,11.0,88,0.00,,,0.00,meteohub,2013-01-10 02:37:00,
2013-01-09 21:42:00,76.5,72.7,30.16,NE,45,11.0,11.0,88,0.00,,,0.00,meteohub,2013-01-10 02:42:00,
2013-01-09 21:47:00,76.5,72.7,30.16,East,90,7.0,15.0,88,0.00,,,0.00,meteohub,2013-01-10 02:47:00,
2013-01-09 21:52:00,76.6,72.9,30.16,East,90,8.0,15.0,88,0.00,,,0.00,meteohub,2013-01-10 02:52:00,
2013-01-09 21:57:00,76.6,72.9,30.17,SE,135,8.0,15.0,88,0.00,,,0.00,meteohub,2013-01-10 02:57:00,
2013-01-09 22:02:00,76.6,72.5,30.16,East,90,8.0,12.0,87,0.00,,,0.00,meteohub,2013-01-10 03:02:00,
2013-01-09 22:07:00,76.6,72.5,30.16,East,90,10.0,14.0,87,0.00,,,0.00,meteohub,2013-01-10 03:07:00,
2013-01-09 22:12:00,76.6,72.5,30.16,East,90,7.0,14.0,87,0.00,,,0.00,meteohub,2013-01-10 03:12:00,
2013-01-09 22:17:00,76.6,72.9,30.16,NE,45,11.0,14.0,88,0.00,,,0.00,meteohub,2013-01-10 03:17:00,
2013-01-09 22:22:00,76.5,72.7,30.16,SE,135,8.0,13.0,88,0.00,,,0.00,meteohub,2013-01-10 03:22:00,
2013-01-09 22:27:00,76.3,72.5,30.16,East,90,10.0,11.0,88,0.00,,,0.00,meteohub,2013-01-10 03:27:00,
2013-01-09 22:32:00,76.3,72.5,30.16,NNE,23,11.0,11.0,88,0.00,,,0.00,meteohub,2013-01-10 03:32:00,
2013-01-09 22:37:00,76.5,72.7,30.16,East,90,13.0,13.0,88,0.00,,,0.00,meteohub,2013-01-10 03:37:00,
2013-01-09 22:42:00,76.6,72.9,30.16,SE,135,10.0,13.0,88,0.00,,,0.00,meteohub,2013-01-10 03:42:00,
2013-01-09 22:47:00,76.5,72.7,30.16,East,90,12.0,13.0,88,0.00,,,0.00,meteohub,2013-01-10 03:47:00,
2013-01-09 22:53:00,76.3,72.5,30.16,East,90,8.0,13.0,88,0.00,,,0.00,meteohub,2013-01-10 03:53:00,
2013-01-09 22:58:00,76.3,72.5,30.15,SE,135,7.0,12.0,88,0.00,,,0.00,meteohub,2013-01-10 03:58:00,
2013-01-09 23:03:00,76.1,72.3,30.16,East,90,7.0,12.0,88,0.00,,,0.00,meteohub,2013-01-10 04:03:00,
2013-01-09 23:08:00,76.1,72.3,30.16,East,90,12.0,12.0,88,0.00,,,0.00,meteohub,2013-01-10 04:08:00,
2013-01-09 23:13:00,76.1,72.3,30.16,East,90,8.0,12.0,88,0.00,,,0.00,meteohub,2013-01-10 04:13:00,
2013-01-09 23:18:00,76.1,72.3,30.16,East,90,6.0,12.0,88,0.00,,,0.00,meteohub,2013-01-10 04:18:00,
2013-01-09 23:23:00,75.9,72.1,30.16,East,90,9.0,12.0,88,0.00,,,0.00,meteohub,2013-01-10 04:23:00,
2013-01-09 23:28:00,76.1,72.0,30.16,East,90,7.0,11.0,87,0.00,,,0.00,meteohub,2013-01-10 04:28:00,
2013-01-09 23:33:00,76.1,71.6,30.17,East,90,10.0,11.0,86,0.00,,,0.00,meteohub,2013-01-10 04:33:00,
2013-01-09 23:39:00,76.3,71.4,30.16,East,90,14.0,14.0,85,0.00,,,0.00,meteohub,2013-01-10 04:39:00,
2013-01-09 23:44:00,76.3,71.1,30.17,East,90,9.0,15.0,84,0.00,,,0.00,meteohub,2013-01-10 04:44:00,
2013-01-09 23:49:00,76.3,70.7,30.16,East,90,6.0,15.0,83,0.00,,,0.00,meteohub,2013-01-10 04:49:00,
2013-01-09 23:54:00,76.3,70.7,30.16,East,90,8.0,15.0,83,0.00,,,0.00,meteohub,2013-01-10 04:54:00,
2013-01-09 23:59:00,76.1,70.9,30.16,East,90,8.0,15.0,84,0.00,,,0.00,meteohub,2013-01-10 04:59:00,